sat.trackr.live / text

‹ back to catalog

STARLINK-37601

NORAD 69450 · 2026-127H

PAYLOAD ACTIVE UNKNOWN

§ Identity

Operator
Country
US
Launch date
2026-06-08
Launch site
AFETR
Launch vehicle
Mass (kg)
RCS (m²)

Purposes: comms

External: N2YO · Heavens-Above · Gunter

§ Orbital elements

Epoch: 2026-09-20T02:43:17.423040Z

Period
93.85 min
Inclination
53.1565°
Eccentricity
0.0001396
Mean motion
15.34401543 rev/d
Perigee alt
461.7 km
Apogee alt
463.7 km
Semi-major
6,840.8 km
B*
5.5092e-4
RAAN
167.4607°
Arg perigee
85.4923°
Mean anomaly
274.6239°
Rev number
1,613

§ Raw data

STARLINK-376011 69450U 26127H   26263.11339610  .00018284  00000+0  55092-3 0  99912 69450  53.1565 167.4607 0001396  85.4923 274.6239 15.34401543 16136

JSON: /api/v1/satellites/69450 · /tle

For live sub-satellite position, see the globe view (requires WebGL).

§ Visibility from observer

Set your observer location to see the next 7 days of passes ≥ 10°. The values pass through the URL so the page stays shareable.

No JS? Fill the form by hand. The geolocation button needs JavaScript.